Theta_e
306 306 307 306 306 306 307 307 307 306 307 308 308 308 308 309 309 308 309 310 310 311 311 311 311 311 313 314 316 316 317 317 317 317 318 319 319 321 321 323 326 325 325 327 327 327 328 329 329 329 329 332 335 336 333 336 343 343 339 340 341 340 341 345 344 338 336 340 342 343 334 328 331 332 327 326 329 331 331 336 340 343 341 339 338 336 338 339
306 306 306 306 306 306 306 306 306 307 307 307 307 308 308 308 309 308 308 309 310 310 311 311 311 312 313 314 316 316 317 317 317 318 317 317 317 319 319 321 323 323 323 326 327 327 329 330 330 330 333 335 337 335 334 338 343 343 340 341 341 340 341 344 343 336 334 338 340 345 338 327 328 330 327 327 328 329 331 335 344 353 345 339 338 337 338 338
305 306 306 306 306 306 306 306 306 306 307 307 307 307 308 307 308 309 308 309 309 310 311 311 311 312 313 314 315 316 316 317 317 317 316 314 316 317 318 319 321 322 322 324 326 327 328 329 329 331 335 335 337 336 336 340 340 341 340 341 341 338 338 338 337 334 334 338 340 342 337 331 332 328 325 328 328 328 333 338 345 354 348 342 340 337 338 337
304 305 305 306 306 306 306 306 306 306 306 307 307 307 308 307 307 308 308 308 309 309 310 311 311 312 313 314 315 315 316 316 316 316 314 313 314 315 316 318 320 322 322 322 324 326 326 327 328 331 333 334 337 337 338 338 337 339 339 340 339 335 336 335 332 331 332 337 339 340 335 334 335 327 326 328 328 330 332 335 343 353 348 342 340 338 337 336
302 303 304 305 306 306 306 306 306 306 306 306 307 307 307 307 307 308 308 308 309 309 310 310 311 311 313 314 314 315 315 315 317 318 317 315 314 314 315 315 318 321 322 322 324 325 325 327 328 330 334 336 336 336 339 338 336 340 339 337 335 333 336 334 331 332 331 332 335 338 335 333 334 328 328 329 329 336 335 331 332 343 344 340 340 338 336 336
301 302 303 304 305 305 306 306 306 306 306 306 306 307 307 307 307 307 307 308 308 309 309 310 311 311 312 314 314 315 315 316 319 322 322 320 319 318 318 317 317 320 322 323 324 324 327 329 330 331 334 337 336 336 338 337 336 340 338 335 335 333 333 331 331 333 332 330 331 337 334 331 333 330 330 329 330 335 335 330 326 335 341 338 338 338 338 338
302 301 302 303 304 305 305 305 306 306 306 306 306 306 306 307 307 307 308 308 308 308 308 309 311 312 312 313 314 314 315 316 317 320 321 320 320 320 320 320 319 321 323 324 324 324 327 331 331 331 333 334 334 335 335 335 335 338 338 335 333 332 333 332 332 334 334 330 330 334 331 330 333 331 330 331 332 332 330 329 327 331 337 337 338 339 339 338
303 302 301 301 302 304 305 305 305 306 306 306 306 306 306 306 306 307 308 308 308 308 308 309 310 312 312 313 313 314 315 315 314 317 319 318 317 317 319 322 322 323 325 324 324 324 327 331 330 330 331 332 332 332 333 335 336 337 337 335 333 333 333 332 332 333 334 331 329 330 331 334 335 330 331 333 333 332 328 331 334 334 338 340 339 339 339 338
302 302 301 301 300 301 303 304 305 306 306 306 306 306 306 306 306 306 307 307 308 308 309 310 310 311 312 312 313 314 314 312 311 313 315 315 314 315 318 323 324 325 326 324 323 323 326 330 330 329 330 330 329 330 332 334 338 337 335 335 335 334 332 331 331 331 332 331 330 330 330 336 337 330 332 336 334 332 326 330 338 340 342 341 340 339 338 339
302 301 301 301 301 300 302 303 304 305 306 306 306 307 306 306 307 306 306 307 308 308 308 309 310 310 311 312 313 314 313 311 312 312 313 314 313 315 319 324 325 325 325 324 323 323 324 328 330 329 329 330 329 329 330 333 337 336 333 333 334 335 334 333 331 330 330 330 330 330 330 333 335 330 334 339 336 333 328 326 331 339 344 341 339 339 337 338
301 301 301 301 302 301 301 302 303 305 306 306 306 306 306 306 307 307 306 306 307 307 308 309 310 310 311 311 312 313 312 310 313 314 315 315 316 318 319 322 325 325 324 323 323 322 323 326 326 327 328 330 330 330 330 331 332 332 332 332 333 334 334 334 332 329 329 330 331 331 330 331 331 332 333 335 334 332 331 328 326 331 338 338 340 339 336 337
301 301 301 301 302 301 301 301 302 303 305 305 305 305 306 306 307 307 307 306 306 307 307 308 309 310 310 311 311 312 311 312 313 314 315 315 317 320 319 321 324 324 324 323 323 322 323 324 324 325 328 329 329 329 330 329 329 328 329 332 334 333 334 335 333 331 329 329 329 330 331 331 331 334 334 332 333 333 333 333 329 327 329 333 337 338 337 336
300 301 301 301 301 301 301 300 300 302 304 305 305 305 305 305 306 307 307 306 306 307 308 308 309 310 310 310 310 310 310 311 312 312 314 313 316 320 320 321 322 323 324 323 323 323 323 324 325 325 325 328 331 328 326 328 329 327 328 331 334 335 334 334 332 333 333 329 327 329 332 334 333 333 331 329 332 333 333 333 332 329 326 325 330 335 337 334
299 300 301 301 301 301 300 300 300 301 303 304 305 306 305 305 305 306 307 306 306 307 308 308 308 309 309 309 310 311 311 311 310 310 312 313 315 319 320 321 322 323 324 323 323 323 323 324 325 325 324 327 330 326 326 330 328 327 329 331 335 336 335 332 331 332 334 330 327 329 332 334 334 333 330 330 332 332 332 332 331 331 328 324 324 329 333 333
299 300 300 300 301 301 301 300 300 301 302 303 305 305 306 305 305 306 306 306 307 307 307 307 308 308 308 309 309 309 310 310 310 310 311 312 315 319 320 321 323 323 322 322 323 324 324 324 324 326 325 325 327 328 331 332 330 329 331 333 336 336 333 331 329 329 331 330 327 329 333 334 333 332 330 331 334 332 332 332 330 331 330 327 324 322 325 327
298 299 299 300 300 300 300 300 300 301 301 302 304 305 305 306 306 306 306 306 307 307 306 307 308 308 309 310 309 309 310 310 310 311 311 311 314 318 319 320 321 321 321 321 323 323 323 324 325 325 326 327 328 330 332 332 332 332 329 331 334 334 332 330 327 327 329 329 326 329 333 333 331 333 331 329 331 332 332 331 330 330 329 329 328 324 322 322
298 298 298 299 299 300 300 300 300 300 300 301 303 304 305 305 306 305 305 306 307 307 306 306 307 308 308 308 309 311 312 311 310 310 311 311 313 317 318 319 321 321 320 320 322 322 322 325 326 325 326 328 329 330 332 333 334 334 331 330 330 331 331 329 327 326 327 327 326 327 330 329 327 330 331 330 329 328 330 329 328 330 330 329 329 328 326 323
298 297 298 298 299 299 300 300 300 300 300 301 302 304 305 306 305 305 306 306 306 305 306 306 307 308 308 308 309 311 311 312 312 310 312 312 313 316 317 317 319 321 321 321 322 322 323 325 326 327 327 328 329 330 333 333 332 333 333 331 329 328 328 328 327 326 325 325 326 325 326 325 324 324 326 329 328 327 328 327 326 329 332 332 330 329 328 326
298 297 297 297 298 298 299 300 300 300 300 301 302 303 304 305 305 305 306 306 306 306 306 307 307 308 309 308 309 310 308 311 314 312 312 313 314 316 317 315 316 320 322 322 323 324 323 325 326 329 329 328 329 330 331 331 331 330 330 329 329 328 327 326 325 324 324 324 326 325 324 324 323 322 323 326 327 328 328 328 327 328 331 332 331 330 328 327
298 297 296 297 297 298 298 299 299 300 300 301 303 303 304 305 305 305 305 305 306 306 307 307 307 309 309 309 310 309 310 311 312 313 313 313 314 316 316 316 316 319 322 323 324 324 323 325 326 327 329 328 328 329 329 332 332 329 328 329 329 329 329 326 324 325 325 324 327 326 325 324 324 324 324 326 327 327 327 328 328 327 328 329 332 333 331 329
298 297 296 297 297 297 297 298 299 300 301 303 303 303 304 306 305 305 305 305 305 304 306 306 306 308 308 308 309 309 312 313 312 313 314 313 315 316 316 317 318 320 322 322 322 323 323 325 325 324 325 325 326 328 328 331 331 329 330 331 331 332 331 327 327 328 326 327 331 330 328 328 327 327 326 325 325 326 327 327 327 327 327 327 329 333 332 330
297 297 297 297 297 297 297 298 299 300 302 304 304 303 303 304 304 304 304 305 305 303 304 305 304 306 307 307 309 308 311 314 313 313 313 314 315 316 317 318 320 321 321 321 322 323 324 325 324 322 322 322 323 326 328 331 330 329 330 331 332 332 331 330 330 329 326 329 334 332 329 329 328 327 326 325 324 324 326 326 326 327 326 326 326 329 330 329
296 296 297 297 297 297 298 299 299 300 302 302 303 303 303 303 304 303 303 305 306 304 305 305 304 306 306 306 308 309 311 313 314 314 313 314 315 315 317 318 319 320 320 321 322 323 324 323 322 322 323 323 323 325 328 330 330 330 329 329 331 331 331 331 330 328 328 330 333 331 329 328 326 325 325 324 324 324 325 326 326 327 326 325 325 326 327 327
297 296 296 297 297 297 297 299 299 300 300 301 303 304 304 304 303 304 304 305 306 306 306 305 304 306 306 306 307 309 312 312 313 313 312 314 316 316 317 317 318 319 320 320 321 322 322 321 322 324 324 324 323 324 326 327 328 329 329 329 330 329 329 330 328 327 328 330 331 330 331 329 326 325 324 323 325 324 325 325 325 326 326 327 326 325 325 325
298 297 297 297 298 297 297 299 300 299 300 302 303 302 303 304 303 304 304 305 307 306 305 305 305 306 306 306 308 310 311 312 313 313 311 314 315 316 317 316 317 318 318 319 320 320 320 319 321 323 323 324 324 324 325 326 326 326 326 327 328 328 328 328 327 327 328 330 329 328 330 330 327 325 323 321 323 323 323 324 324 324 324 325 325 325 325 325
298 298 298 298 298 297 297 299 299 299 301 303 303 301 302 303 304 304 303 305 306 305 304 305 306 307 307 307 309 310 309 311 313 312 311 313 312 313 316 316 316 317 317 319 319 319 320 319 320 323 324 324 324 324 324 324 325 325 326 327 327 327 328 327 326 327 329 330 328 326 327 327 327 325 322 322 323 322 323 324 323 322 322 323 323 323 324 323
298 298 298 298 298 297 297 298 298 299 302 303 303 303 303 303 304 303 303 304 303 302 304 305 304 305 307 308 309 309 308 309 312 312 312 313 312 312 316 316 316 317 316 317 318 318 320 320 320 321 323 323 324 324 323 324 325 325 326 329 328 327 327 326 327 328 328 328 328 328 327 326 326 323 321 323 325 324 322 323 323 322 322 322 322 321 322 322
298 299 299 299 299 298 297 297 297 298 301 301 302 303 303 303 303 302 303 303 301 301 305 306 304 303 306 309 308 308 309 310 313 313 311 313 312 313 316 316 316 318 316 316 317 317 319 321 321 321 322 323 323 323 323 323 324 325 327 330 328 327 327 326 328 329 327 327 329 329 329 329 327 323 323 323 322 321 320 320 321 322 322 321 320 320 321 321
299 300 299 299 299 298 297 296 297 298 300 301 302 303 302 302 302 303 303 302 301 303 305 306 305 304 307 309 308 309 311 311 313 311 310 312 312 313 314 314 316 318 316 315 316 316 317 318 318 319 321 322 321 322 324 323 323 325 327 327 326 326 325 325 327 328 326 327 329 328 328 329 325 323 325 325 322 320 319 319 320 320 321 320 320 320 320 320
300 300 300 300 299 297 295 295 297 299 300 301 303 302 302 302 302 304 304 301 302 304 303 305 306 306 309 310 309 309 311 313 312 308 308 311 310 311 312 312 314 316 316 317 317 316 316 316 316 318 320 320 319 319 321 322 322 324 323 323 326 325 323 323 322 323 326 328 328 326 327 328 326 323 324 326 326 323 320 321 321 320 321 321 320 319 319 319
301 300 299 299 298 296 295 297 299 299 300 302 303 303 303 303 304 305 304 301 303 304 304 305 307 306 308 310 310 309 310 313 313 311 311 310 309 311 313 313 314 316 317 318 317 316 317 317 317 319 319 319 319 319 320 322 323 325 323 323 325 324 323 324 321 320 325 328 327 325 325 327 328 326 323 325 327 325 322 321 322 321 322 321 319 319 318 318
301 300 298 298 297 295 296 298 299 299 301 302 303 304 304 304 305 304 302 302 304 305 305 305 306 306 308 310 309 309 310 312 313 313 313 311 311 313 314 315 314 315 316 316 317 317 318 319 319 318 318 318 319 320 320 320 321 323 324 323 325 324 324 326 324 324 325 325 326 326 325 327 327 325 323 323 323 322 322 321 321 321 321 320 320 319 319 319
301 300 297 296 296 295 296 298 298 298 301 302 304 306 305 305 304 302 302 304 305 304 304 305 306 305 307 309 309 309 311 311 311 312 311 311 313 313 312 313 312 313 315 315 315 317 317 317 317 317 318 318 319 320 321 320 320 322 322 323 324 324 325 326 326 325 325 323 324 325 326 326 326 323 322 323 321 321 320 320 319 320 320 320 319 319 320 320
301 300 298 297 297 296 297 298 298 299 301 303 306 307 305 304 303 302 302 304 304 304 304 305 305 306 307 308 308 309 311 310 311 312 312 311 313 312 311 312 313 313 315 315 314 316 316 315 316 317 318 319 318 319 322 322 321 320 320 321 321 321 323 324 324 324 323 323 321 322 325 326 325 322 322 322 320 320 319 318 318 318 318 319 318 319 320 319
302 301 300 300 300 298 298 299 299 301 302 304 306 305 304 304 304 303 303 304 305 305 305 304 304 306 307 307 306 308 309 310 310 311 312 312 312 312 311 312 312 312 314 315 314 314 314 315 318 318 317 319 319 318 320 321 319 317 319 320 319 320 321 321 322 321 320 322 321 321 325 327 322 318 319 320 319 319 320 320 319 319 318 319 319 317 316 316
302 302 302 302 302 302 301 301 302 303 303 305 305 303 303 304 303 303 304 304 305 305 305 305 304 305 307 306 307 308 307 308 310 312 312 311 311 311 311 310 310 311 312 313 314 314 313 315 318 316 315 317 318 317 318 319 320 318 318 319 318 318 320 320 321 320 319 322 322 320 323 324 320 318 318 318 317 317 319 318 317 317 317 317 317 315 314 314
302 302 302 302 302 303 303 303 304 303 304 306 305 303 302 302 302 304 304 303 304 304 304 306 306 305 307 307 306 307 307 307 309 311 312 311 309 308 309 309 308 310 311 311 312 313 313 316 317 315 316 316 316 318 318 317 318 319 318 318 317 317 318 318 320 321 321 322 322 319 320 320 320 321 320 317 318 317 316 316 317 317 316 317 317 316 316 316
302 302 302 302 302 303 303 304 303 303 305 306 305 302 301 302 303 303 303 302 304 305 304 305 306 306 307 307 306 306 308 308 308 310 311 311 309 307 308 308 307 309 310 311 312 312 311 315 317 314 313 315 317 318 318 317 316 317 318 318 317 318 318 317 318 320 320 321 320 319 319 318 318 319 317 316 318 316 315 317 318 318 317 318 318 318 319 319
301 303 303 302 302 303 303 303 303 304 306 306 305 302 301 302 304 303 302 302 304 305 304 304 306 306 306 307 307 306 306 308 308 309 309 310 309 307 306 307 307 307 309 311 314 313 312 313 315 314 312 313 316 317 319 319 316 315 317 317 316 317 318 316 316 318 319 319 319 319 319 320 319 316 316 315 315 316 316 316 316 315 317 318 319 320 320 320
300 304 303 301 302 303 302 302 304 307 306 303 303 301 300 302 304 303 302 302 304 304 303 303 305 305 305 306 307 307 307 307 308 308 309 308 308 307 307 308 307 306 308 311 313 314 313 311 312 316 315 313 314 315 317 319 318 317 317 316 315 315 316 316 315 317 319 318 318 318 318 321 319 314 314 313 312 314 315 315 315 314 316 316 317 319 320 320
300 305 304 301 302 302 302 305 305 305 305 303 303 303 302 303 303 302 301 302 303 302 303 304 304 303 304 304 304 306 308 309 308 308 308 307 307 307 307 308 307 305 308 310 311 311 312 311 311 315 317 316 316 315 314 315 317 317 317 316 316 315 315 316 316 317 317 316 318 318 317 319 317 311 311 311 310 310 312 314 315 315 315 315 315 316 316 317
300 304 303 301 302 301 304 307 305 303 306 305 302 302 303 303 302 301 301 302 302 301 302 304 303 303 303 302 302 304 307 308 307 307 308 307 307 306 306 308 307 306 308 309 308 308 310 312 312 313 314 314 313 312 311 312 314 314 315 316 317 316 315 316 316 316 316 314 315 316 315 319 317 311 310 311 309 309 310 313 314 314 315 315 314 313 312 312
301 302 302 301 301 301 305 307 304 304 306 304 300 300 301 302 302 301 301 301 302 301 302 302 302 303 302 302 302 302 304 305 305 306 308 308 308 307 307 309 307 307 309 307 307 308 308 310 311 312 313 312 311 311 309 309 312 312 312 313 316 316 315 315 315 315 316 314 314 314 314 318 320 314 310 309 308 309 310 311 312 313 313 313 312 311 311 310
301 301 302 301 300 302 305 305 304 304 305 304 303 302 301 301 301 301 301 301 301 301 302 301 301 301 302 303 304 302 302 303 302 303 304 306 307 308 309 310 307 306 308 306 305 307 309 310 310 310 312 313 313 313 311 311 313 313 312 311 313 314 313 314 313 312 314 314 314 315 313 315 319 316 311 309 308 308 308 309 311 311 310 310 309 310 309 309
301 303 303 302 300 302 304 303 303 304 304 304 305 304 303 302 301 301 302 301 301 301 301 301 301 301 301 304 306 305 303 302 300 301 303 305 307 306 307 310 308 305 308 308 307 308 308 308 309 308 309 311 312 312 310 310 310 310 308 307 308 309 311 313 313 312 313 313 313 315 313 312 313 311 309 308 307 307 306 307 308 307 307 307 307 308 308 307
301 302 303 303 302 303 303 302 302 304 304 304 304 304 303 302 301 301 301 300 300 301 301 301 301 302 301 303 306 306 305 303 301 303 304 304 305 304 305 308 307 305 308 310 309 309 308 307 308 308 307 307 308 308 306 305 305 305 304 304 305 306 307 309 308 308 309 310 310 310 310 309 309 307 306 306 306 306 306 305 305 305 305 305 305 306 306 305
300 300 299 301 303 303 303 303 302 303 304 304 304 303 302 301 300 301 301 300 300 301 301 300 301 302 302 303 303 303 304 304 302 302 302 301 303 303 303 305 304 304 307 307 307 309 309 308 307 306 305 305 305 304 303 303 303 303 303 304 304 304 304 304 305 304 305 306 305 305 306 306 305 304 304 304 304 304 304 304 304 303 303 303 303 303 303 303
298 300 297 297 300 302 302 302 302 302 303 303 302 302 302 300 299 300 301 301 301 301 300 300 301 301 302 303 303 302 303 304 302 301 301 301 302 304 304 303 301 301 304 305 306 308 308 308 306 305 305 305 304 303 302 302 303 303 303 304 304 304 304 304 304 303 303 304 302 302 303 303 303 302 303 302 302 302 302 302 302 302 302 302 302 302 302 302
297 298 296 294 298 302 301 300 302 303 302 301 301 301 300 299 298 298 299 301 302 301 301 301 301 300 301 303 303 302 303 303 302 301 301 300 300 301 303 303 300 301 302 302 304 305 306 307 305 304 304 303 302 303 301 302 303 302 302 303 303 303 303 303 303 303 303 303 302 302 303 302 302 302 301 301 302 301 301 301 301 301 302 302 302 301 302 301
294 294 294 295 298 300 301 302 302 303 301 299 300 300 299 298 297 296 298 300 301 301 300 300 300 299 300 301 301 301 300 300 301 301 300 300 300 300 302 302 301 301 301 300 301 302 303 304 303 302 302 301 300 302 302 302 303 302 301 301 301 301 301 301 302 302 302 302 302 302 303 302 302 302 302 302 302 301 301 301 301 301 301 301 301 301 300 300
290 290 291 296 298 297 298 300 299 299 299 297 297 298 297 296 295 296 298 298 298 298 296 296 298 299 300 299 298 298 297 296 297 298 298 298 299 300 301 300 300 301 301 301 301 301 302 303 303 303 302 300 299 301 302 302 301 300 299 299 299 299 300 300 300 301 302 302 302 302 302 302 301 301 301 301 301 300 300 300 299 300 299 299 299 298 298 297
289 290 289 293 297 294 293 295 295 296 297 295 293 294 295 295 293 295 299 298 294 293 293 294 297 300 301 299 297 296 295 294 295 295 296 297 297 298 299 299 299 300 300 301 301 302 302 302 303 303 302 299 300 301 301 300 299 298 298 299 299 299 299 299 299 300 301 301 301 302 302 301 300 300 299 299 298 297 298 298 297 297 297 296 295 294 294 293
Wind_Speed
17 17 16 16 16 16 16 16 16 16 15 15 15 14 14 14 13 13 13 14 13 12 12 12 13 13 12 12 10 10 11 12 13 14 15 16 17 17 14 9 7 7 5 5 6 4 2 3 6 5 3 1 1 0 1 1 1 2 1 2 4 3 4 3 2 3 1 4 6 5 4 1 4 3 1 2 4 3 4 5 3 4 6 2 3 14 28 29
18 18 17 16 15 16 16 16 16 16 16 15 15 15 14 14 13 13 13 13 13 12 12 11 13 12 11 11 9 9 10 13 14 17 22 22 20 20 18 14 12 12 9 7 6 4 4 2 5 7 4 2 1 0 1 1 1 2 2 3 4 4 4 4 5 6 4 4 7 6 3 2 4 3 0 0 2 1 5 4 5 5 6 6 9 20 27 27
21 19 18 17 16 16 16 16 16 16 16 16 15 14 15 14 13 13 13 12 12 12 12 11 13 12 10 10 9 8 9 12 11 16 25 25 24 24 21 17 14 13 13 12 8 4 4 1 4 5 4 2 2 2 3 1 0 1 3 3 4 4 4 4 5 7 6 6 6 7 4 2 4 2 1 3 2 1 4 2 1 1 2 4 7 15 22 23
24 22 20 18 17 16 16 16 16 15 15 15 15 14 14 14 13 13 12 12 12 12 12 11 12 11 9 9 9 8 6 8 7 12 22 23 24 26 25 22 17 15 15 15 13 9 5 4 5 4 4 3 3 3 3 3 2 2 3 5 5 3 4 5 5 7 7 5 5 5 3 4 4 0 1 4 4 2 5 5 6 7 8 9 7 11 17 18
24 24 23 21 19 18 17 17 16 16 15 14 15 14 14 14 13 12 12 12 12 12 12 11 11 11 9 9 8 7 3 3 3 3 7 12 17 20 23 24 21 18 16 16 14 11 8 5 3 3 3 3 4 3 3 5 4 2 4 7 8 3 5 6 4 7 7 7 6 4 3 3 2 2 2 5 5 4 5 7 8 9 11 13 12 12 13 14
23 23 24 23 21 20 18 17 17 16 16 15 14 14 13 14 13 13 11 12 12 11 11 11 12 11 10 9 7 7 5 2 1 8 8 4 2 7 14 21 23 21 19 17 13 7 5 4 3 4 3 3 6 5 4 6 5 4 5 6 8 6 7 5 3 7 7 7 8 5 3 1 3 4 3 5 5 6 5 5 5 8 13 15 15 13 12 12
23 23 23 23 22 21 20 18 17 17 16 15 15 14 14 13 13 12 11 12 12 11 11 11 12 10 9 8 6 6 6 7 4 6 9 9 8 8 6 14 22 24 22 18 13 8 4 5 5 4 4 3 6 6 4 6 7 6 6 7 8 7 8 6 4 7 7 6 8 5 5 2 1 3 2 2 6 6 5 5 2 6 12 14 13 13 14 14
22 23 23 23 22 22 22 20 18 17 16 15 15 14 13 13 13 12 11 11 10 11 12 11 11 9 9 7 5 5 7 15 19 10 1 4 9 13 10 9 21 26 23 20 16 10 6 7 8 5 5 5 6 7 6 5 6 8 8 6 5 5 7 7 5 5 7 7 7 7 8 6 6 2 2 5 7 6 5 2 2 4 10 10 12 13 12 12
21 22 24 24 23 22 22 21 19 18 16 16 15 14 13 13 12 12 11 11 10 10 11 10 10 9 9 6 4 6 10 21 28 22 17 16 17 15 10 6 21 25 22 21 19 14 8 6 8 6 4 5 7 7 8 7 5 8 8 6 5 6 6 6 6 7 7 6 6 8 11 10 6 2 3 7 8 5 1 3 4 8 10 9 11 12 12 12
21 22 23 23 23 22 22 22 21 19 17 16 15 14 14 13 12 11 11 11 10 11 10 9 9 8 9 7 6 7 8 15 21 17 17 19 18 12 6 5 19 24 19 17 18 15 10 6 4 3 1 3 6 6 8 8 4 6 8 8 8 7 5 4 6 8 7 6 7 8 12 12 5 3 4 6 6 1 3 3 3 7 9 11 10 10 11 11
21 22 22 22 22 22 22 22 22 21 18 16 15 14 13 13 12 10 10 10 10 11 10 8 8 8 9 7 7 7 2 4 9 5 7 9 9 10 7 7 17 22 17 13 15 16 14 9 2 2 1 2 4 5 7 5 2 5 6 5 7 8 7 5 7 9 6 6 7 7 11 11 3 2 6 6 5 2 2 2 4 6 7 9 10 10 9 10
21 22 21 21 21 22 22 21 21 22 20 16 14 13 12 12 11 9 9 9 9 10 9 8 8 8 8 7 9 13 9 6 6 5 6 8 7 11 8 8 14 20 20 12 13 16 16 13 5 1 2 1 3 4 4 2 2 4 5 2 4 5 7 7 7 6 3 5 7 4 7 8 3 6 9 5 5 4 5 5 5 6 6 7 8 8 8 10
21 21 21 21 21 22 23 22 21 22 21 18 15 14 12 11 10 9 8 8 9 9 8 9 8 7 7 5 9 16 17 14 15 16 12 9 8 10 9 9 10 16 23 18 12 14 15 13 9 4 2 1 2 1 2 1 4 4 4 2 2 4 6 6 6 3 2 7 8 4 5 7 6 9 9 4 5 5 5 7 7 6 6 7 7 7 8 10
22 22 20 20 21 22 23 22 22 23 22 20 16 14 13 10 9 8 8 8 8 7 8 8 6 5 6 6 7 10 10 13 20 23 16 9 7 8 10 11 11 13 20 20 12 9 10 10 9 4 0 1 1 3 3 1 4 5 4 3 2 4 5 5 7 7 6 7 6 6 6 6 6 9 9 5 6 6 7 9 9 8 6 6 7 7 9 9
21 22 21 21 21 21 22 23 23 23 22 21 19 15 13 10 8 7 7 7 7 7 8 6 4 4 3 6 9 9 9 12 18 22 18 11 7 6 9 10 11 10 13 14 9 7 9 9 7 3 1 2 1 2 0 0 2 4 5 5 4 5 3 3 6 9 9 5 3 6 6 6 6 8 8 6 6 7 8 10 9 10 9 6 6 7 8 9
22 22 22 22 21 21 21 22 23 23 22 21 20 17 12 10 7 6 6 6 5 6 5 3 5 5 2 4 4 4 9 11 14 18 19 15 9 6 7 7 6 8 7 8 8 8 11 9 3 1 2 2 1 2 3 2 1 3 7 8 6 7 3 1 4 6 8 4 2 6 6 6 5 7 8 7 7 8 9 10 9 9 10 7 6 6 7 7
22 21 22 23 23 22 21 22 22 22 22 20 21 18 12 9 6 4 4 4 4 5 5 4 5 6 3 4 1 2 5 9 12 15 15 15 12 7 5 4 3 8 8 6 7 6 6 4 1 1 2 2 3 3 3 6 6 4 6 7 7 8 5 3 3 3 6 6 6 8 7 10 9 8 8 7 8 9 9 10 9 7 8 7 6 6 7 8
23 22 21 22 22 22 22 21 21 22 21 20 21 17 11 7 4 3 2 3 2 1 2 3 3 5 4 3 3 4 4 3 7 13 13 11 11 6 4 3 1 5 7 4 2 2 1 2 2 3 2 3 4 5 7 9 10 9 7 7 7 6 6 5 3 3 5 6 8 9 9 12 12 10 8 7 7 7 9 10 8 6 7 7 6 6 7 8
23 23 22 21 21 22 22 21 21 21 21 21 20 14 7 4 2 1 2 2 2 2 1 3 4 3 2 2 3 4 6 4 3 10 11 8 8 3 4 3 2 2 5 2 3 3 3 2 2 4 4 5 7 11 12 7 7 11 9 7 6 5 6 5 4 4 4 5 8 9 9 10 11 11 9 8 7 7 8 8 6 5 6 6 6 6 7 8
23 23 22 21 21 21 21 22 22 21 21 21 17 10 3 1 2 1 1 2 4 4 1 2 5 3 2 1 3 7 6 6 3 6 7 7 10 7 3 2 2 0 4 4 4 3 3 3 4 6 8 8 8 11 10 2 2 7 7 5 6 6 7 6 6 4 3 5 7 6 7 9 10 10 8 7 7 7 8 9 8 7 6 6 6 7 7 7
22 22 21 20 20 20 20 21 22 22 21 16 10 3 1 1 1 1 1 3 7 9 6 4 5 5 3 2 3 6 2 2 3 4 6 7 13 9 2 2 2 1 3 4 3 2 3 5 8 11 10 5 3 7 7 3 1 3 4 6 6 7 7 5 5 3 3 3 5 4 6 8 8 8 7 6 6 6 7 8 10 10 8 6 6 7 8 6
21 19 20 19 19 20 19 20 23 20 15 8 3 1 2 2 1 2 0 1 6 10 10 7 4 6 7 4 1 1 2 0 3 4 4 5 8 8 2 3 4 3 3 4 3 3 4 7 11 9 5 2 1 3 5 6 4 2 3 4 5 5 3 1 3 3 1 1 3 4 6 8 8 9 9 8 7 7 7 7 8 9 9 7 6 6 7 7
20 17 18 18 19 20 19 22 20 13 9 7 3 3 3 4 4 4 1 1 4 5 6 6 5 4 6 5 2 3 1 1 2 4 4 4 4 5 5 4 4 3 3 4 5 5 5 6 7 3 3 4 4 2 3 4 4 4 3 3 5 4 3 3 4 3 1 2 3 3 6 8 8 10 11 10 8 7 8 8 7 7 7 9 8 6 6 7
20 18 16 16 19 18 20 22 13 7 11 9 5 4 6 7 6 3 1 0 3 3 2 6 6 5 6 5 5 5 1 2 2 3 4 6 4 3 4 5 5 3 3 5 5 6 5 2 2 5 5 6 4 2 5 4 4 5 5 6 6 4 5 6 2 2 1 2 3 1 6 8 8 10 11 9 7 7 7 8 8 7 7 8 8 7 7 7
20 20 15 15 17 18 21 17 6 11 15 5 3 6 7 7 5 3 1 2 2 4 2 3 4 4 6 5 8 6 1 2 4 3 3 5 4 3 3 3 3 6 6 6 5 6 7 3 2 4 4 6 5 5 5 5 4 6 6 8 8 5 6 6 1 3 2 3 3 4 3 9 6 9 12 9 8 9 7 8 10 10 8 8 8 9 9 8
21 20 17 16 16 17 17 8 6 17 12 3 7 10 6 5 3 5 2 3 2 4 3 0 1 3 4 5 7 5 1 3 4 6 6 5 3 2 3 3 1 5 6 4 3 4 4 3 2 3 4 6 6 5 5 6 5 5 5 7 8 6 7 7 3 1 2 4 2 4 5 9 5 8 11 8 9 13 9 8 11 10 8 8 7 8 9 10
23 20 19 16 13 13 10 5 11 15 5 4 13 12 8 5 2 5 1 4 2 4 2 1 1 1 2 4 8 5 1 1 2 4 4 5 3 3 1 4 1 2 4 3 2 3 2 4 4 3 3 4 4 4 5 8 6 4 4 7 8 9 10 8 5 5 5 2 2 2 3 7 9 9 8 6 9 13 10 9 9 8 8 9 9 10 11 12
24 21 17 14 10 9 7 8 12 9 5 11 14 11 9 3 3 2 2 3 2 3 1 1 1 2 3 3 7 4 1 1 3 2 2 6 5 2 1 4 3 4 5 5 5 2 3 5 5 5 4 3 4 5 5 7 5 3 4 6 7 9 10 8 7 6 4 2 4 4 3 4 11 8 4 6 11 15 13 11 9 8 9 10 10 11 11 12
24 21 15 10 8 6 7 8 8 5 9 12 10 9 7 2 2 3 4 2 1 1 0 0 1 2 2 2 4 2 2 1 1 1 2 5 3 2 2 1 2 5 4 5 6 1 3 3 4 5 5 4 5 5 4 7 6 3 3 2 1 2 1 1 4 5 4 4 8 9 7 6 11 7 4 6 10 14 12 9 9 10 9 9 10 11 11 12
24 19 10 6 4 5 5 6 5 6 12 10 7 8 4 1 2 5 3 1 1 1 1 0 2 2 2 6 3 1 2 1 1 2 3 2 1 1 1 1 2 3 1 0 3 0 1 1 1 2 3 3 4 2 2 7 6 1 2 2 4 4 4 3 1 1 3 5 10 14 13 10 10 6 5 5 7 9 9 6 7 8 8 10 11 11 11 10
23 17 8 3 1 2 2 3 3 7 11 10 8 6 2 2 3 4 1 1 0 2 1 1 2 2 5 8 3 1 1 2 2 3 2 2 2 1 1 1 2 2 1 2 2 1 3 4 1 1 1 0 0 1 2 1 3 5 2 1 1 2 1 2 2 2 3 5 8 11 12 12 11 6 3 5 7 7 8 7 8 9 9 10 10 10 10 10
19 15 8 3 1 2 1 1 4 9 12 11 9 4 3 4 3 2 1 2 1 2 1 1 2 2 4 5 2 2 3 2 1 3 2 1 1 1 2 1 2 1 1 3 1 2 2 3 4 3 2 1 2 2 2 4 4 4 3 4 2 3 2 2 2 2 4 6 4 5 8 9 10 10 8 9 8 6 6 8 9 10 10 10 10 11 10 9
15 13 9 6 4 1 1 2 7 11 12 10 6 3 5 4 2 1 3 2 1 2 2 2 3 2 2 4 2 2 3 1 0 3 2 1 1 1 2 2 3 2 1 3 1 2 1 3 3 2 3 3 5 3 1 0 2 4 4 4 4 4 3 3 4 3 5 7 4 4 6 4 5 8 12 17 15 12 12 12 10 9 10 11 10 9 8 8
14 12 11 10 7 4 2 5 8 10 11 8 3 4 5 3 1 2 2 2 2 3 3 3 3 3 3 3 1 0 2 1 1 3 2 2 2 0 1 1 3 2 1 2 2 2 3 3 3 5 4 4 7 6 5 4 3 3 4 3 4 4 3 3 3 3 3 4 3 2 4 4 4 3 7 12 11 10 14 14 11 9 8 7 6 6 7 8
13 14 14 12 10 7 5 6 6 7 8 6 4 5 5 2 2 1 2 3 2 3 6 4 3 4 4 3 3 2 2 1 2 3 2 2 2 1 1 0 1 2 2 1 0 2 2 4 6 5 2 6 8 6 6 6 1 3 2 2 2 4 4 3 2 2 1 3 2 2 2 4 5 4 4 6 2 2 9 10 6 6 6 5 6 6 7 7
12 14 15 14 11 8 7 6 5 6 5 4 5 4 2 0 1 0 2 3 2 4 7 5 5 4 4 3 3 4 3 1 1 2 2 2 2 1 1 1 1 1 3 2 1 1 1 3 5 4 1 4 5 5 6 5 3 1 2 2 2 0 2 2 5 3 3 4 3 4 4 4 5 7 7 8 6 2 3 4 2 3 4 4 5 5 5 5
9 10 11 14 13 8 7 5 5 6 4 4 6 3 1 1 1 1 3 4 2 2 3 4 4 3 3 3 3 4 3 1 2 2 1 1 2 3 2 2 2 2 4 2 0 1 3 3 5 1 2 3 1 2 2 2 3 4 2 4 1 3 3 1 4 3 4 5 3 6 8 5 4 6 4 4 7 4 5 4 4 5 5 5 5 5 6 6
5 4 6 13 13 9 6 5 5 4 3 5 6 3 0 1 2 2 3 4 2 1 4 3 2 2 2 2 2 4 3 1 2 2 2 1 1 2 2 1 2 1 3 3 1 1 2 1 6 2 2 4 4 3 2 3 2 4 2 2 2 0 1 2 2 3 4 5 3 5 8 5 5 5 4 5 7 4 3 4 5 6 6 5 5 5 6 6
4 2 2 11 13 9 8 6 5 4 4 5 4 2 0 2 3 3 4 4 1 2 4 3 2 3 3 2 1 4 4 2 2 2 1 1 1 1 2 1 2 4 1 4 3 1 2 1 4 4 1 2 4 2 3 3 1 2 2 2 1 2 3 3 3 3 4 5 5 3 4 4 4 5 7 9 6 2 4 4 4 4 3 4 4 5 5 5
3 2 1 10 11 8 9 7 4 5 4 3 2 0 2 2 4 5 5 5 2 2 3 2 3 3 2 2 1 2 4 3 2 2 2 2 1 1 2 1 1 4 3 3 3 0 2 2 2 4 4 1 1 1 3 3 2 1 1 2 2 1 1 1 2 3 3 3 4 5 5 4 3 3 3 2 2 4 3 3 2 1 1 1 2 3 4 4
4 3 2 10 11 9 9 5 3 4 3 2 1 1 2 2 2 6 7 6 3 2 2 3 3 3 2 3 3 2 2 3 3 3 2 2 2 1 1 0 1 3 3 4 3 1 1 2 2 2 2 1 4 5 4 4 4 4 3 3 3 3 1 3 4 3 2 2 3 5 6 5 3 2 3 6 5 3 2 1 0 3 4 4 4 5 5 5
3 2 4 9 12 11 7 4 2 3 3 0 1 1 2 3 3 5 6 6 4 3 3 3 2 3 3 2 2 2 2 2 3 3 2 2 2 1 2 2 1 1 2 2 2 1 2 3 2 1 3 3 7 5 2 2 3 4 2 2 2 2 2 2 4 2 1 3 2 3 5 4 2 2 3 4 3 2 2 1 3 5 5 5 6 7 6 7
3 1 5 11 14 10 5 4 4 4 1 2 1 1 2 2 2 3 5 5 4 3 4 3 2 3 3 2 2 4 4 3 3 3 2 2 2 1 3 2 2 2 3 1 2 1 1 2 1 2 3 4 6 4 3 3 2 3 1 1 3 2 2 4 3 2 2 4 4 4 4 3 2 2 1 1 3 4 4 5 6 7 6 5 7 8 7 8
1 1 3 11 15 7 4 3 3 3 3 4 3 3 3 1 2 3 4 4 3 2 2 2 3 2 2 2 3 3 2 2 3 3 2 2 1 3 3 1 2 3 2 1 2 0 0 1 1 1 3 5 6 6 5 4 3 2 2 2 1 1 1 1 1 2 2 4 6 6 5 4 2 3 3 4 7 9 9 7 6 7 7 7 7 7 7 8
2 1 2 8 13 8 4 1 2 2 2 3 3 4 3 2 2 2 2 2 2 1 1 1 2 2 2 3 3 3 3 2 2 2 2 2 2 3 4 4 3 2 1 3 1 2 1 1 2 3 1 2 1 2 2 2 2 1 1 2 1 1 1 0 1 2 2 3 5 5 5 6 6 7 10 10 9 11 13 13 10 9 9 9 7 6 6 7
2 2 2 5 8 6 2 1 3 3 1 2 2 3 4 3 3 2 2 2 2 2 2 2 3 3 4 5 5 4 5 3 2 2 2 3 3 2 5 5 4 4 5 4 4 3 2 1 1 4 5 5 4 5 4 1 2 4 5 5 4 2 2 1 1 4 4 4 6 6 7 10 13 14 14 11 9 11 13 13 12 12 12 11 9 8 7 6
2 1 0 1 3 3 3 3 4 2 0 1 1 2 3 3 4 4 3 2 2 3 2 2 4 5 4 4 3 3 4 4 4 3 2 3 2 4 5 4 5 8 7 3 3 3 4 2 2 4 6 7 7 7 3 2 2 5 6 8 8 5 3 3 5 9 7 5 8 10 11 13 14 15 15 13 10 10 11 12 11 11 11 11 11 12 12 11
1 1 1 0 1 1 1 2 3 3 3 2 2 2 3 4 4 4 3 2 3 3 2 3 5 5 4 3 2 2 3 4 4 3 2 3 3 4 6 4 3 6 7 4 3 3 4 1 3 3 5 8 8 7 4 2 4 4 5 9 10 9 8 9 11 13 10 8 10 13 14 13 12 13 16 17 15 13 12 12 11 11 13 13 13 13 14 15
2 1 2 2 1 2 2 2 2 3 6 4 3 3 4 4 4 3 3 3 4 4 3 3 5 7 6 4 1 2 3 3 2 1 2 3 4 2 3 3 2 4 6 5 4 2 3 2 2 2 6 8 6 5 3 1 4 5 8 11 11 13 14 14 15 15 12 11 11 13 16 15 12 12 16 18 16 14 13 12 12 13 14 15 14 14 13 13
2 1 2 2 2 1 1 2 2 4 5 4 3 4 3 4 4 3 3 2 2 3 4 4 5 6 4 5 4 3 3 3 2 2 2 3 4 2 1 2 1 5 6 4 3 3 2 1 1 1 4 6 3 2 2 2 5 7 11 14 14 16 16 14 13 12 10 11 12 13 15 14 11 12 14 14 13 12 13 14 14 13 13 14 14 14 14 13
2 1 1 2 2 4 3 3 3 3 3 3 3 3 3 3 4 4 3 2 2 4 4 4 5 4 2 5 6 4 3 5 3 4 3 3 4 2 2 2 1 4 5 2 2 2 1 1 2 4 3 4 2 1 2 4 5 10 16 18 17 15 12 10 8 7 8 10 12 11 11 10 10 10 9 9 10 10 12 14 13 10 10 10 10 11 13 13
3 1 2 3 2 4 3 3 3 2 2 2 3 3 3 3 4 3 1 1 5 6 3 4 3 2 2 4 3 1 3 5 6 7 6 6 7 6 5 6 5 3 3 1 1 1 2 2 2 2 2 2 2 1 2 5 8 10 10 11 12 10 10 9 7 8 10 9 7 9 9 8 8 8 8 9 10 11 11 11 9 8 9 10 10 10 10 10
Wind_Direction
344 339 334 331 327 325 322 320 319 316 315 312 311 309 305 302 295 288 287 285 281 278 276 276 277 279 277 274 278 281 286 286 282 275 257 247 248 248 251 246 245 273 298 278 251 231 213 230 211 167 121 197 223 249 298 323 87 91 117 219 231 223 233 214 237 263 277 305 294 321 355 249 266 298 306 7 32 48 56 25 3 13 21 64 137 146 152 159
352 345 338 333 329 327 322 320 318 316 315 312 309 308 306 302 297 290 284 283 283 279 277 275 273 275 276 275 276 279 289 290 284 269 256 252 254 255 254 246 237 250 263 264 255 202 174 202 195 166 132 166 206 134 178 292 34 122 168 226 230 210 230 210 229 271 291 295 293 299 295 243 238 228 212 159 296 18 86 12 3 34 29 59 114 137 149 158
359 354 346 338 334 330 324 321 318 316 315 313 309 306 305 299 294 292 285 282 283 279 278 274 271 272 272 274 276 278 290 297 286 265 262 257 251 251 252 246 232 234 244 248 253 216 176 244 229 174 133 168 195 140 151 178 83 166 189 239 244 222 250 242 241 268 275 269 276 284 275 265 267 231 187 174 181 147 158 192 47 111 172 131 133 143 151 158
359 358 354 347 340 334 328 324 320 318 314 312 310 305 303 300 294 293 291 287 284 278 274 272 272 272 270 270 273 273 294 305 274 258 267 257 246 247 246 245 233 222 228 236 245 247 247 292 267 197 139 165 182 148 164 181 167 177 186 223 235 217 267 266 279 302 303 290 262 267 295 294 289 289 199 159 139 261 241 214 195 197 181 163 162 158 158 161
356 356 357 354 347 339 333 328 324 322 316 312 308 304 302 300 294 288 288 286 283 278 272 271 267 266 269 262 261 259 263 297 249 212 266 242 236 240 238 239 231 217 216 225 239 251 255 265 252 193 154 157 163 151 186 185 151 195 213 225 236 232 267 266 299 314 319 321 291 270 276 274 310 329 219 156 164 235 233 218 211 192 172 168 169 166 166 166
353 353 355 355 352 346 339 332 328 325 320 315 307 304 301 297 296 289 285 284 281 276 271 270 263 262 264 254 250 241 210 235 50 87 86 112 196 244 237 234 223 211 209 215 225 235 237 219 192 183 174 155 177 178 180 178 158 210 233 228 234 228 249 274 333 300 310 322 298 273 254 280 18 316 235 164 197 228 227 229 220 189 177 170 163 164 172 177
350 350 351 352 352 350 345 337 330 327 323 319 310 304 299 295 295 290 286 284 282 278 270 266 263 262 260 250 245 234 218 252 263 88 78 67 39 360 297 237 215 207 203 202 206 211 215 196 185 174 175 167 184 190 175 169 172 206 233 230 225 217 240 272 291 281 303 306 286 289 301 295 186 281 293 224 240 248 259 270 271 193 174 161 160 172 181 183
348 347 348 348 348 348 348 342 335 328 323 321 316 308 298 293 291 287 284 281 282 279 272 266 263 263 256 240 234 233 230 241 236 222 223 9 356 344 326 240 205 201 198 195 195 196 207 206 195 171 181 197 182 182 176 165 184 209 226 234 223 212 234 258 263 278 305 299 291 298 294 264 211 215 312 266 262 274 273 302 29 155 156 160 175 182 185 188
346 345 345 346 345 345 346 344 341 333 325 321 318 314 302 294 291 287 282 277 274 272 273 271 264 262 254 234 215 232 237 239 240 246 260 280 301 312 319 234 196 194 194 198 198 193 201 207 203 194 190 201 186 176 175 180 202 207 215 233 231 228 231 247 264 274 285 285 298 300 284 268 236 216 278 255 253 275 299 75 93 140 155 176 187 187 189 192
343 343 342 345 344 342 342 343 343 338 331 323 320 320 308 298 291 285 282 276 271 267 269 270 262 254 248 235 219 235 253 251 248 259 272 281 284 278 286 225 192 191 191 198 198 193 201 215 218 228 229 203 196 180 175 189 202 183 202 232 241 248 246 239 263 274 282 280 275 274 270 270 259 212 259 263 253 277 63 86 122 151 172 186 192 194 195 196
340 341 340 342 343 340 340 340 341 341 337 328 322 320 312 306 296 286 283 276 272 269 263 265 262 248 241 232 225 226 243 255 236 251 317 311 263 237 254 227 191 190 192 198 205 201 205 221 264 349 277 207 192 182 179 189 202 174 184 228 247 255 257 235 246 265 274 275 258 246 257 268 285 220 240 253 261 296 353 220 170 184 200 196 198 199 198 205
336 338 338 338 340 339 338 337 338 341 340 334 324 317 314 309 300 289 279 273 270 268 261 257 250 238 240 242 239 233 227 237 242 258 329 342 257 231 249 229 194 195 197 197 214 212 213 225 228 277 307 329 159 171 188 163 143 183 167 189 263 262 256 228 224 248 256 273 270 244 256 262 230 230 238 237 261 283 291 269 220 209 211 210 208 204 207 212
333 334 335 335 337 337 336 333 334 339 340 337 327 318 314 306 300 290 275 270 267 265 259 254 242 226 234 250 250 242 242 251 266 275 284 310 279 235 234 226 206 206 204 201 210 213 223 230 207 185 337 2 160 219 285 160 155 185 166 160 285 277 258 219 199 186 200 265 261 220 245 252 225 239 246 239 250 263 273 268 258 236 209 210 212 209 220 218
334 332 333 334 334 333 333 330 331 335 337 338 332 321 314 306 298 287 276 271 267 264 256 260 259 233 232 256 260 248 251 262 267 270 269 286 293 238 224 218 214 213 205 200 199 203 219 215 178 154 332 189 279 324 316 206 179 167 147 160 197 243 241 191 181 165 183 242 235 212 247 253 244 255 259 257 241 237 249 253 257 257 232 211 211 211 221 223
336 332 333 332 331 331 332 329 328 331 333 335 334 325 314 308 297 284 276 266 262 258 255 267 256 227 254 272 268 255 249 261 262 256 252 267 286 246 226 217 209 205 201 197 194 185 176 167 150 135 182 160 45 324 225 265 211 157 174 203 195 221 234 183 192 177 189 233 212 212 251 264 256 255 249 243 230 223 239 246 246 253 248 225 217 217 223 230
336 333 330 329 329 331 330 328 326 327 329 332 333 326 313 305 293 278 272 262 260 253 245 257 214 195 258 273 268 259 233 238 252 248 248 255 254 243 237 231 201 173 174 179 169 148 144 148 147 157 154 140 140 162 162 193 261 194 205 214 202 210 224 192 207 192 192 205 203 215 252 283 268 256 248 229 219 217 233 246 240 244 253 240 223 223 229 238
335 332 329 328 328 328 328 327 325 325 327 330 331 327 315 303 286 272 270 249 248 242 212 210 193 184 251 277 254 271 235 229 240 245 252 247 237 242 242 238 197 146 124 119 139 128 129 148 186 205 166 164 169 145 168 192 201 216 214 217 215 208 208 193 197 206 193 201 232 228 241 261 262 266 262 241 229 223 229 248 243 234 253 254 237 232 233 237
335 331 328 326 325 325 326 326 325 324 325 327 329 324 314 300 278 261 254 220 219 245 209 211 176 183 248 288 234 241 263 248 236 241 248 239 230 237 201 202 278 139 119 86 134 146 150 160 184 212 200 168 166 166 199 205 197 200 200 208 218 210 215 210 198 214 194 210 245 244 246 257 263 267 265 262 255 234 231 246 245 232 243 254 252 240 236 237
335 331 327 325 322 321 322 325 325 323 325 325 326 322 304 287 281 252 234 195 156 128 207 220 177 177 306 308 252 270 277 274 251 238 234 214 202 182 145 163 351 136 144 142 192 174 149 140 190 214 207 192 186 192 204 204 194 203 207 209 206 210 227 212 199 222 210 238 255 250 256 264 268 271 268 269 265 243 240 247 245 238 240 252 259 252 247 241
336 331 326 324 323 320 318 322 322 321 326 324 321 325 309 301 31 324 225 199 214 206 227 220 195 219 358 336 325 341 296 263 258 231 223 194 164 134 107 112 33 337 170 165 179 170 159 178 213 219 216 205 192 206 214 186 163 208 217 222 203 211 230 205 195 211 199 248 261 253 260 267 270 275 276 276 278 265 258 259 253 242 233 237 247 258 260 248
334 331 328 324 323 323 318 318 318 321 326 320 310 322 272 185 94 340 213 229 246 239 253 256 218 252 281 267 328 359 338 256 276 241 226 190 155 149 189 138 113 216 190 163 156 144 167 198 222 226 228 222 177 209 222 228 219 186 194 219 213 214 227 199 188 194 124 212 267 293 282 274 273 276 280 287 293 278 262 262 263 258 249 235 232 251 263 260
330 329 330 326 322 323 321 319 318 320 329 326 281 236 273 248 255 309 238 295 268 235 235 246 246 275 280 278 289 55 62 356 301 273 226 180 160 169 178 132 157 188 165 154 157 174 192 221 232 228 223 233 231 207 211 228 229 184 163 210 224 214 226 244 221 228 94 160 269 320 304 283 279 275 272 269 265 262 253 245 253 263 269 266 248 246 261 270
331 327 326 326 323 321 321 321 318 320 340 339 293 232 262 273 290 304 202 334 294 232 214 221 215 239 255 261 207 143 60 246 266 266 203 156 169 178 145 149 178 168 167 178 178 188 200 233 233 188 143 195 227 189 181 224 237 217 184 202 227 197 186 237 234 228 217 198 232 313 306 284 282 279 271 258 244 246 256 250 248 250 257 266 260 243 245 259
333 330 323 322 324 321 321 321 319 338 344 332 300 276 286 283 279 278 209 70 303 273 211 190 185 203 227 231 183 168 216 231 224 255 193 161 165 162 152 164 161 162 205 196 193 214 227 257 142 147 165 182 199 185 178 206 239 236 215 209 222 197 202 232 252 298 274 198 187 255 293 277 267 272 274 264 236 230 244 254 260 255 246 260 272 266 252 246
333 332 325 323 325 322 323 320 324 345 340 347 359 331 320 302 266 207 185 32 335 300 295 167 173 213 214 190 166 160 161 260 218 200 186 180 169 154 173 161 148 195 204 182 191 234 245 263 98 151 176 161 181 208 193 189 218 243 230 220 221 198 217 242 287 7 317 250 194 140 268 273 247 247 261 265 257 248 236 236 248 252 246 248 263 269 267 262
333 329 323 321 322 324 327 323 339 340 340 47 5 346 347 322 243 171 140 43 359 299 318 93 209 218 199 172 161 138 74 272 221 168 166 180 159 77 174 167 139 203 184 153 194 244 242 234 167 157 166 170 190 213 196 176 204 247 211 201 217 210 225 236 201 151 231 254 249 142 230 268 251 234 245 246 257 258 247 240 244 248 251 246 246 254 260 265
333 326 321 316 315 325 330 319 331 337 348 355 337 339 352 337 208 176 101 37 356 297 307 307 328 289 227 174 158 133 132 247 81 113 151 166 158 21 146 174 154 182 149 123 217 241 170 177 181 147 138 187 205 220 198 170 190 242 148 161 196 207 222 220 187 204 227 257 343 144 209 268 265 249 237 216 246 257 249 245 248 244 248 248 245 246 248 254
330 325 318 310 306 311 307 308 321 330 344 332 324 329 340 314 196 174 78 63 307 287 265 264 356 309 286 178 162 150 117 115 85 41 49 127 143 36 124 180 156 162 154 153 206 250 101 155 178 159 159 200 214 222 192 164 199 252 142 162 192 200 217 214 195 219 230 230 252 211 155 255 264 253 205 201 240 254 248 242 247 243 241 244 247 248 248 252
331 330 319 303 296 279 278 298 303 313 339 336 323 324 328 254 174 67 81 91 289 302 129 330 4 300 289 161 187 183 68 67 85 359 38 104 117 62 146 207 142 163 169 177 206 245 73 151 158 156 180 211 228 225 176 178 221 271 142 138 71 117 120 191 207 220 206 213 235 219 177 219 265 256 180 203 236 249 253 245 240 238 236 240 245 248 249 251
336 342 331 299 281 250 262 282 279 317 341 342 322 316 316 211 84 60 42 2 327 308 225 235 359 326 175 161 196 272 48 18 76 41 12 70 65 39 97 1 76 137 138 259 234 262 39 278 98 134 183 212 228 212 168 198 201 52 63 40 17 29 46 43 21 193 199 223 231 221 194 202 257 256 175 205 226 234 244 241 242 242 236 237 239 242 243 245
343 356 359 323 285 211 263 283 289 333 343 344 329 319 348 27 65 81 36 315 24 314 309 287 335 315 183 165 171 197 133 8 73 86 23 26 26 38 92 22 78 85 39 317 283 39 11 329 308 232 217 325 328 73 7 256 138 84 79 123 335 319 23 41 53 103 220 236 230 224 204 201 239 250 175 216 227 225 232 230 237 239 234 236 237 237 238 239
354 7 21 30 101 169 221 296 343 348 347 344 339 352 72 35 29 75 279 317 1 323 329 284 306 305 184 151 126 166 139 15 37 93 82 69 10 66 106 150 145 78 221 216 233 46 15 271 238 257 257 150 84 91 358 4 77 104 121 134 183 228 222 205 200 196 232 245 235 209 200 205 239 252 249 253 247 240 246 239 233 233 235 238 236 236 238 239
12 17 38 66 77 94 228 325 348 349 344 343 352 44 78 63 29 301 287 323 346 304 305 291 311 339 131 122 103 128 99 52 29 73 72 107 68 2 17 64 117 91 198 176 118 46 338 278 237 235 254 195 135 136 204 257 154 158 153 163 186 206 226 221 221 231 237 249 250 168 175 211 260 248 238 245 246 238 241 244 237 231 232 235 237 243 248 249
37 38 54 65 59 43 1 348 351 344 340 349 35 58 57 69 332 297 307 298 279 293 302 302 325 5 68 88 67 62 74 52 88 81 57 75 84 4 342 60 119 102 86 120 110 164 191 287 228 192 215 185 164 178 171 146 175 189 161 167 190 206 228 220 219 234 244 270 274 163 162 198 234 221 211 234 248 239 241 245 241 241 245 253 271 276 272 272
49 51 54 52 45 36 15 0 356 348 346 7 68 64 57 65 284 311 348 304 293 309 310 325 8 41 50 40 10 2 47 79 93 83 54 75 110 168 230 122 130 116 110 129 171 158 181 261 252 230 209 159 173 192 149 118 232 241 142 127 208 224 230 257 265 198 218 312 293 204 215 218 244 298 271 258 284 204 243 258 261 275 296 320 319 300 292 294
54 52 47 34 26 26 20 13 2 357 2 45 72 60 51 345 281 282 342 318 312 309 315 345 26 45 42 31 10 0 22 79 122 82 33 65 98 8 355 21 307 153 127 144 182 105 126 266 285 307 295 172 178 187 163 164 205 192 121 169 227 19 138 255 273 226 219 274 246 205 251 269 276 290 282 269 266 231 279 314 14 16 8 18 358 337 333 335
50 50 42 21 10 4 7 13 355 354 17 73 81 79 245 269 287 260 308 313 289 298 337 11 20 27 34 36 17 354 359 9 24 73 56 20 54 8 1 341 296 181 137 121 193 169 150 268 292 289 226 262 310 140 197 229 142 124 183 205 130 41 81 164 260 244 231 251 234 221 243 252 241 263 302 300 288 322 19 25 58 65 58 55 38 21 19 23
45 47 37 13 360 345 354 3 337 345 44 68 72 88 191 295 317 300 314 318 294 356 30 41 24 24 35 46 18 350 3 12 355 44 95 42 14 9 29 353 327 20 123 112 70 250 130 285 294 281 209 288 7 73 250 318 72 125 190 181 110 52 223 173 213 241 246 257 263 228 234 233 210 238 285 286 288 325 62 71 55 54 51 47 36 24 21 20
51 52 15 357 353 347 350 342 333 14 67 59 57 83 277 286 289 299 320 329 339 36 31 26 27 46 39 39 2 351 23 56 357 12 67 42 330 2 34 357 328 346 2 124 129 271 85 107 287 309 276 290 22 53 217 259 337 71 30 22 87 198 196 183 202 232 242 255 274 243 219 237 215 216 242 254 278 345 99 98 80 79 58 31 16 13 6 356
32 71 333 346 356 351 335 330 356 47 71 68 85 122 327 302 289 308 335 354 20 38 35 21 16 38 25 4 34 29 25 36 29 26 25 24 42 358 352 328 326 342 348 89 115 23 52 117 247 304 328 12 53 200 193 190 197 209 271 274 273 244 225 278 245 211 191 216 255 253 241 254 254 235 225 186 88 68 82 89 87 52 12 330 316 312 316 321
17 72 316 343 358 342 335 354 27 51 77 62 69 338 343 23 340 329 341 7 36 46 68 75 46 43 25 5 27 32 25 33 35 52 51 20 40 11 334 354 296 332 9 43 47 49 99 153 179 286 335 358 236 228 191 175 177 171 202 217 216 218 236 296 268 215 178 183 217 249 258 255 267 350 67 95 92 49 31 81 299 311 304 295 294 281 281 290
41 70 308 348 357 342 2 50 358 33 97 93 3 298 340 35 25 341 341 8 35 37 49 66 52 39 37 27 15 14 52 50 17 42 54 13 50 57 328 9 24 12 82 64 326 296 137 117 107 245 243 240 254 250 147 175 183 153 176 194 173 167 141 210 254 260 282 279 275 280 271 257 282 11 80 91 58 1 345 256 261 278 276 284 297 293 288 283
69 311 311 356 356 345 39 64 346 15 58 268 272 273 320 23 20 352 357 13 21 17 26 27 16 33 27 9 20 25 44 47 23 48 63 18 36 337 313 337 357 18 74 74 302 307 75 83 81 289 297 305 300 321 38 38 75 113 293 296 141 146 164 191 225 313 302 272 278 283 267 250 285 315 142 96 328 301 276 253 252 268 271 268 278 288 292 288
63 240 296 1 4 10 74 64 17 26 329 317 6 351 336 32 40 14 11 5 3 26 52 15 355 14 350 3 57 30 12 52 33 21 53 74 10 346 6 356 322 14 76 220 267 265 134 105 104 25 346 335 337 348 355 355 27 118 260 296 161 182 291 289 305 307 261 241 242 255 264 252 273 320 311 317 321 311 301 280 250 254 267 263 260 267 278 287
20 18 277 355 16 43 87 107 115 99 356 5 22 356 358 13 359 31 36 353 338 34 81 345 340 12 5 32 57 6 347 75 62 356 20 31 319 341 9 340 327 16 303 276 358 91 140 139 106 106 137 237 266 291 271 301 332 287 265 314 324 225 228 24 327 266 253 250 240 239 267 274 281 292 289 293 302 299 295 292 284 275 276 275 266 256 262 278
76 41 307 337 11 39 57 39 97 105 60 40 18 2 30 13 318 332 42 9 339 20 47 347 354 30 27 33 42 7 352 22 47 48 33 354 318 318 339 338 2 3 321 326 36 74 92 43 125 158 187 216 214 222 225 93 337 288 289 296 291 256 211 157 285 255 253 275 267 253 263 276 277 277 277 279 280 277 280 285 287 287 290 294 294 287 284 285
97 117 8 323 350 17 16 4 30 55 81 116 92 357 19 14 336 347 21 20 348 21 45 18 27 43 26 20 44 21 345 356 18 39 36 353 316 298 321 359 27 356 341 356 30 70 85 10 273 199 221 241 240 247 271 30 278 268 284 288 282 271 245 230 239 243 243 263 266 254 250 258 266 276 283 283 276 271 274 279 284 290 296 298 301 304 307 304
78 174 165 235 299 33 40 339 353 23 25 49 75 33 25 32 21 3 348 328 346 13 39 24 25 31 8 351 45 45 5 11 14 5 1 355 337 326 338 7 18 353 3 14 356 74 107 261 247 205 248 259 257 272 310 345 278 267 267 270 273 267 248 236 239 238 231 232 249 255 256 255 260 274 281 281 281 278 279 285 295 301 301 300 301 305 306 304
69 105 323 357 121 192 221 297 334 50 41 27 35 43 41 40 28 349 309 328 358 10 42 43 1 357 355 348 27 87 34 21 4 356 38 358 329 335 347 328 310 359 29 27 341 48 115 253 247 220 267 275 275 294 339 322 266 269 260 253 254 253 245 241 246 248 243 242 253 266 271 269 266 267 271 277 286 293 298 300 300 298 296 297 298 297 293 292
74 82 316 11 39 290 298 358 30 68 44 18 25 34 33 41 25 338 316 334 344 349 32 47 352 337 360 19 41 81 54 23 353 338 29 351 318 335 336 279 296 351 12 28 335 350 69 272 299 26 298 298 314 357 352 257 244 262 265 254 247 249 250 248 253 259 265 264 262 266 272 274 270 266 271 280 290 296 298 295 292 290 290 293 299 303 305 306
67 128 106 86 33 342 349 10 27 69 53 19 24 15 19 43 17 337 323 350 69 57 28 2 333 320 17 52 61 75 23 353 312 292 304 280 272 300 304 271 318 345 345 359 314 344 50 278 355 29 326 310 41 89 297 298 278 270 266 259 254 253 256 256 251 243 246 255 262 266 267 270 273 277 282 291 300 302 298 298 302 310 319 329 339 342 342 342
32 70 66 98 75 346 355 12 13 52 77 35 15 353 11 31 360 350 355 42 82 78 25 331 330 326 30 53 55 41 310 292 265 262 262 246 250 256 253 257 261 267 272 254 269 263 169 218 323 13 302 313 75 133 327 337 307 281 262 252 250 247 248 252 250 245 240 238 253 261 259 270 296 321 331 330 334 330 319 323 338 350 359 8 12 7 360 353